Falls City, NE

5:57 PM CST on December 09, 2019 (GMT -0600)
Brenner

Weather History for KFNB - November, 2019

Change the Weather History Date:

Saturday, November 16, 2019

  Actual Average Record
Temperature  
Mean Temperature 45 °F -  
Max Temperature 60 °F 54 °F 75 °F (1963)
Min Temperature 30 °F 30 °F 6 °F (1955)
Degree Days  
Heating Degree Days 20    
Moisture  
Dew Point 29 °F    
Average Humidity 58    
Maximum Humidity 82    
Minimum Humidity 33    
Precipitation  
Precipitation 0.00 in - - ()
Sea Level Pressure  
Sea Level Pressure 30.11 in    
Wind  
Wind Speed 8 mph (SSE)    
Max Wind Speed 18 mph    
Max Gust Speed 29 mph    
Visibility 10 miles    
Events      
Averages and records for this station are not official NWS values.
T = Trace of Precipitation, MM = Missing Value Source: NWS Daily Summary

Daily Weather History Graph

Daily Weather History Graph

Search for Another Location

Airport or City:

Astronomy

Nov. 16, 2019 Rise Set
Actual Time 7:08 AM CST 5:05 PM CST
Civil Twilight 6:39 AM CST 5:34 PM CST
Nautical Twilight 6:06 AM CST 6:07 PM CST
Astronomical Twilight 5:34 AM CST 6:39 PM CST
Moon 8:39 PM CST (11/16) 11:03 AM CST (11/16)
Length of Visible Light 10h 54m
Length of Day
9h 56m
Waning Gibbous, 82% of the Moon is Illuminated
Nov 16
Waning Gibbous
Nov 19
Last Quarter
Nov 26
New
Dec 4
First Quarter
Dec 11
Full

Hourly Weather History & Observations

Time (CST) Temp. Windchill Dew Point Humidity Pressure Visibility Wind Dir Wind Speed Gust Speed Precip Events Conditions
12:53 AM 33.1 °F 30.0 °F 27.0 °F 78% 30.25 in 10.0 mi SE 3.5 mph - N/A   Clear
1:53 AM 33.1 °F 27.7 °F 27.0 °F 78% 30.23 in 10.0 mi SE 5.8 mph - N/A   Clear
2:53 AM 32.0 °F 27.5 °F 26.1 °F 79% 30.23 in 10.0 mi SE 4.6 mph - N/A   Clear
3:53 AM 30.9 °F 24.3 °F 26.1 °F 82% 30.22 in 10.0 mi SE 6.9 mph - N/A   Clear
4:53 AM 30.9 °F 23.5 °F 25.0 °F 79% 30.22 in 10.0 mi SE 8.1 mph - N/A   Clear
5:53 AM 30.0 °F 25.2 °F 25.0 °F 82% 30.22 in 10.0 mi SE 4.6 mph - N/A   Clear
6:53 AM 32.0 °F 26.4 °F 25.0 °F 75% 30.22 in 10.0 mi SE 5.8 mph - N/A   Clear
7:53 AM 35.1 °F 29.3 °F 26.1 °F 70% 30.21 in 10.0 mi SE 6.9 mph - N/A   Clear
8:53 AM 39.0 °F 32.3 °F 28.0 °F 65% 30.19 in 9.0 mi SE 10.4 mph - N/A   Clear
9:53 AM 48.9 °F - 30.0 °F 48% 30.17 in 10.0 mi South 16.1 mph 26.5 mph N/A   Clear
10:53 AM 52.0 °F - 28.9 °F 41% 30.15 in 10.0 mi South 13.8 mph 28.8 mph N/A   Clear
11:53 AM 55.0 °F - 30.0 °F 38% 30.10 in 10.0 mi SSE 18.4 mph 26.5 mph N/A   Clear
1:53 PM 59.0 °F - 30.9 °F 35% 30.03 in 10.0 mi South 17.3 mph 28.8 mph N/A   Clear
2:53 PM 60.1 °F - 30.9 °F 33% 30.01 in 10.0 mi South 18.4 mph 26.5 mph N/A   Clear
3:53 PM 57.0 °F - 30.9 °F 37% 29.99 in 10.0 mi SSE 17.3 mph - N/A   Clear
4:53 PM 54.0 °F - 30.9 °F 41% 29.98 in 10.0 mi SSE 13.8 mph - N/A   Clear
5:53 PM 48.9 °F - 30.9 °F 50% 30.00 in 9.0 mi SSE 10.4 mph - N/A   Clear
6:53 PM 46.9 °F - 30.0 °F 52% 30.02 in 10.0 mi SSE 8.1 mph - N/A   Clear
7:53 PM 46.0 °F 43.9 °F 30.0 °F 54% 30.04 in 10.0 mi SE 4.6 mph - N/A   Clear
8:53 PM 45.0 °F 41.8 °F 30.0 °F 56% 30.03 in 10.0 mi SE 5.8 mph - N/A   Clear
9:53 PM 46.0 °F 41.4 °F 30.9 °F 56% 30.02 in 10.0 mi SSE 9.2 mph - N/A   Clear
10:53 PM 48.0 °F - 30.0 °F 50% 30.01 in 10.0 mi SSE 9.2 mph - N/A   Clear
11:53 PM 46.9 °F - 30.9 °F 54% 29.99 in 10.0 mi South 9.2 mph - N/A   Clear